SES-4

Last updated on Sun Dec 14 2025 00:02:50 GMT+0000 (Coordinated Universal Time)

1 38087U 12007A 25346.35183672 -.00000158 00000+0 00000+0 0 9994 2 38087 0.0261 30.3317 0002609 232.6673 282.9775 1.00271784 50353
UTC large
Height (km)
Speed (km/s)
/
Latitude / Longitude
Inclination (degrees)
Orbital Period (minutes)
Azimuth
Elevation
Range (km)
Doppler Factor

Next 0 passes for location: London (51.5072 / 0.1276)

Sorry there are no passes over London.